< < Back
Terminal Aerodrome Forecast


Current Version              Previous Versions:   1  2  3  4  5  6  7  8  9  

Terminal Aerodrome Forecast

972
FTUS42 KGSP 220539
TAFGSP
TAF
KGSP 220539Z 2206/2306 04003KT P6SM FEW250
     FM221600 12005KT P6SM FEW250
     FM222300 11003KT P6SM SCT050
     FM230300 00000KT P6SM BKN035=

Latest METAR

410
SAUS70 KWBC 230500 RRB
MTRGSP
METAR KGSP 230453Z AUTO 03003KT 10SM OVC039 09/M04 A3028 RMK AO2 SLP254
T00891039 401331006


USA.gov is the U.S. government's official web portal to all federal, state and local government web resources and services.